DW9987 Weather Reports


time (UTC)temp
C
wind
direction
speed
KPH
gust
KPH
rain 1hr
cm
rain 24hr
cm
rain mn
cm
humidity
%
barometer
mb
20260509131535 13 321 3.2 12.9 0.00 0.00 0.00 87 1004.5
20260509130034 12 262 4.8 12.9 0.00 0.00 0.00 89 1004.7
20260509124532 11 204 6.4 22.5 0.00 0.00 0.00 89 1004.7
20260509123031 11 244 4.8 11.3 0.00 0.00 0.00 91 1004.5
20260509121531 11 246 1.6 9.7 0.00 0.00 0.00 91 1004.5
20260509120030 11 249 0.0 9.7 0.00 0.00 0.00 92 1004.5
20260509114534 11 232 3.2 12.9 0.00 0.00 0.00 93 1004.3
20260509113029 10 207 1.6 9.7 0.00 0.00 0.00 93 1004.2
20260509111528 10 241 0.0 4.8 0.00 0.00 0.00 93 1004.2
20260509110027 10 216 0.0 9.7 0.00 0.00 0.00 92 1004.2
20260509104526 10 196 4.8 11.3 0.00 0.00 0.00 92 1003.8
20260509103023 11 172 4.8 11.3 0.00 0.00 0.00 92 1003.7
20260509101520 11 189 4.8 11.3 0.00 0.00 0.00 92 1003.9
20260509100019 11 211 4.8 9.7 0.00 0.00 0.00 92 1003.9
20260509094517 11 189 1.6 9.7 0.00 0.00 0.00 92 1004.1
20260509093016 11 184 1.6 8.0 0.00 0.00 0.00 92 1004.2
20260509091515 11 189 1.6 9.7 0.00 0.00 0.00 92 1004.3
20260509090023 11 256 1.6 6.4 0.00 0.00 0.00 91 1004.4
20260509084512 11 210 1.6 6.4 0.00 0.00 0.00 91 1004.4
20260509083012 11 205 1.6 9.7 0.00 0.00 0.00 91 1004.6
20260509081512 11 194 0.0 9.7 0.00 0.00 0.00 90 1004.4
20260509080011 11 185 1.6 9.7 0.00 0.00 0.00 90 1004.5
20260509074510 11 229 3.2 9.7 0.00 0.00 0.00 89 1004.4
20260509073017 11 208 1.6 8.0 0.00 0.00 0.00 89 1004.5
20260509071504 11 264 1.6 8.0 0.00 0.00 0.00 88 1004.8
20260509070002 11 209 1.6 9.7 0.00 0.00 0.00 88 1005.0
20260509064601 11 234 1.6 11.3 0.00 0.00 0.00 87 1005.4
20260509063104 11 217 0.0 6.4 0.00 0.00 0.00 86 1005.4
20260509061556 12 240 1.6 11.3 0.00 0.00 0.00 85 1005.6
20260509060109 12 233 1.6 11.3 0.00 0.00 0.00 85 1005.6
20260509054552 12 238 1.6 9.7 0.00 0.00 0.00 85 1005.7
20260509053102 12 215 0.0 12.9 0.00 0.00 0.00 84 1005.9
20260509051551 12 198 3.2 12.9 0.00 0.00 0.00 84 1005.9
20260509050046 12 234 3.2 8.0 0.00 0.00 0.00 84 1005.8
20260509044545 12 203 1.6 14.5 0.00 0.00 0.00 83 1005.9
20260509043052 13 186 3.2 11.3 0.00 0.00 0.00 83 1005.9
20260509041545 13 200 3.2 9.7 0.00 0.00 0.00 82 1005.8
20260509040059 13 205 4.8 12.9 0.00 0.00 0.00 81 1005.8
20260509034544 13 225 3.2 11.3 0.00 0.00 0.00 80 1006.1
20260509033106 14 233 3.2 14.5 0.00 0.00 0.00 77 1006.2
20260509031542 14 202 3.2 11.3 0.00 0.00 0.00 74 1006.2
20260509030043 15 206 4.8 12.9 0.00 0.00 0.00 72 1006.3
20260509024552 15 201 6.4 14.5 0.00 0.00 0.00 69 1006.2
20260509023042 15 213 3.2 11.3 0.00 0.00 0.00 68 1006.2
20260509021541 15 194 3.2 12.9 0.00 0.00 0.00 68 1006.1
20260509020040 16 191 4.8 11.3 0.00 0.00 0.00 66 1006.0
20260509014540 16 186 3.2 11.3 0.00 0.00 0.00 59 1005.8
20260509013040 16 194 3.2 6.4 0.00 0.00 0.00 58 1005.8
20260509011544 16 194 1.6 8.0 0.00 0.00 0.00 56 1005.8
20260509010040 17 208 1.6 6.4 0.00 0.00 0.00 55 1005.8
20260509004537 17 205 3.2 8.0 0.00 0.00 0.00 53 1005.7
20260509003037 17 188 3.2 8.0 0.00 0.00 0.00 51 1005.9
20260509001537 18 196 1.6 9.7 0.00 0.00 0.00 50 1006.0
20260509000035 18 247 3.2 11.3 0.00 0.00 0.00 50 1005.9
20260508234534 18 204 1.6 17.7 0.00 0.00 0.00 49 1006.0
20260508233037 18 150 4.8 9.7 0.00 0.00 0.00 48 1006.1
20260508231533 19 172 4.8 12.9 0.00 0.00 0.00 46 1006.1
20260508230032 19 269 3.2 17.7 0.00 0.00 0.00 46 1006.0
20260508224533 19 264 1.6 12.9 0.00 0.00 0.00 44 1006.1
20260508223033 19 232 3.2 11.3 0.00 0.00 0.00 44 1006.2
20260508221532 19 190 1.6 11.3 0.00 0.00 0.00 45 1006.2
20260508220030 20 207 4.8 11.3 0.00 0.00 0.00 45 1006.2
20260508214532 19 230 4.8 16.1 0.00 0.00 0.00 46 1006.3
20260508213026 20 217 1.6 9.7 0.00 0.00 0.00 42 1006.4
20260508211525 19 223 4.8 12.9 0.00 0.00 0.00 45 1006.4
20260508210032 20 337 1.6 8.0 0.00 0.00 0.00 47 1006.5
20260508204522 20 240 3.2 8.0 0.00 0.00 0.00 46 1006.6
20260508203021 19 192 3.2 17.7 0.00 0.00 0.00 50 1006.7
20260508201514 18 198 3.2 11.3 0.00 0.00 0.00 52 1007.1
20260508200014 18 185 4.8 11.3 0.00 0.00 0.00 53 1007.4
20260508194509 18 216 3.2 9.7 0.00 0.00 0.00 52 1007.7
20260508193007 18 355 1.6 6.4 0.00 0.00 0.00 50 1007.8
20260508191506 18 222 0.0 4.8 0.00 0.00 0.00 50 1007.9
20260508190004 18 242 0.0 8.0 0.00 0.00 0.00 50 1008.0
20260508184615 18 23 1.6 11.3 0.00 0.00 0.00 50 1008.3
20260508183101 17 20 1.6 11.3 0.00 0.00 0.00 55 1008.5
20260508181603 18 196 4.8 11.3 0.00 0.00 0.00 52 1008.5
20260508180058 18 230 1.6 11.3 0.00 0.00 0.00 58 1008.8
20260508174551 17 229 0.0 8.0 0.00 0.00 0.00 60 1009.1
20260508173048 17 290 1.6 8.0 0.00 0.00 0.00 61 1009.2
20260508171546 17 325 0.0 11.3 0.00 0.00 0.00 64 1009.4
20260508170043 17 190 1.6 8.0 0.00 0.00 0.00 65 1009.8
20260508164539 16 166 1.6 11.3 0.00 0.00 0.00 69 1009.9
20260508163050 16 248 1.6 17.7 0.00 0.00 0.00 69 1010.2
20260508161549 16 196 3.2 11.3 0.00 0.00 0.00 70 1010.4
20260508160035 16 198 4.8 9.7 0.00 0.00 0.00 70 1010.5
20260508154534 16 209 0.0 11.3 0.00 0.00 0.00 69 1010.4
20260508153049 16 238 0.0 8.0 0.00 0.00 0.00 71 1010.6
20260508151527 15 194 1.6 8.0 0.00 0.00 0.00 72 1010.7
20260508150026 15 196 0.0 4.8 0.00 0.00 0.00 73 1010.9
20260508144525 15 197 3.2 9.7 0.00 0.00 0.00 73 1010.9
20260508143021 14 186 0.0 9.7 0.00 0.00 0.00 77 1011.1
20260508141518 13 236 0.0 11.3 0.00 0.00 0.00 81 1011.2
20260508140014 12 202 0.0 4.8 0.00 0.00 0.00 84 1011.2
20260508134515 12 183 1.6 6.4 0.00 0.00 0.00 82 1011.3
20260508133008 11 190 0.0 8.0 0.00 0.00 0.00 83 1011.4